Location: Chmeln�
(49.6483°N, 14.9871°E)
Time: 08:36:15
(UTC+00:00)

Cosmos 2150 Rocket - Pass Details

Date: 18 September 2020
Orbit: 749 x 808 km, 74.0° (Epoch: 24 October)

Event Time Altitude Azimuth Distance (km) Brightness Sun altitude
Rises 18:46:27 0° 189° (S) 3,261 7.1 -16.6°
Reaches altitude 10° 18:48:50 10° 185° (S) 2,346 6.3 -17.0°
Maximum altitude 18:54:04 59° 108° (ESE) 924 4.1 -17.7°
Drops below altitude 10° 18:59:25 10° 30° (NNE) 2,394 6.5 -18.5°
Sets 19:01:52 0° 27° (NNE) 3,333 7.3 -18.9°
